User: anonymous   Login
Location: Lesignano de� Bagni
(44.6500°N, 10.3000°E)
Time: 05:20:22
(UTC+00:00)
Language:

Meteor 1-11 Rocket - Orbit

View from above orbital plane
View from above orbital plane
View from above satellite
View from above satellite

Ground track
Ground track

The orbit data is extracted from the following two-line orbital elements,

1  5918U 72022B   21134.75620356 -.00000060  00000-0 -43570-4 0  9992
2  5918  81.2406  24.8643 0057000 275.8389  83.6283 14.05885150518570
Epoch (UTC): 14 May 2021 18:08:55
Eccentricity: 0.0057000
inclination: 81.2406°
perigee height: 832 km
apogee height: 915 km
right ascension of ascending node: 24.8643°
argument of perigee: 275.8389°
revolutions per day: 14.05885150
mean anomaly at epoch: 83.6283°
orbit number at epoch: 51857

The dashed part of the orbit path shows where the satellite is in the earth's shadow,  

DLR